Starlink 36597

operational
NORAD ID: 67613 Int'l Des: 2026-018 Owner: SPXS Country: US Constellation: starlink
NOTLE

About Starlink 36597

Description loading...

Live Position

Loading 3D Globe...

Upcoming Passes

Altitude History

Altitude vs Time

uPlot chart will show altitude changes over time

Two-Line Element Set

1 67613U 26018AA 26047.36522448 .00158066 00000-0 80986-3 0 9993
2 67613 97.2854 112.1585 0001833 119.8557 240.2894 15.80848540 3953
Epoch: Feb 16, 2026 • Age: 9 hours

Current Status

Altitude 336.4 km
Velocity 7.71 km/s
Sub-Earth Point 55.60°N, 43.37°E
Launch Date Jan 29, 2026
Age 18 days
Type internet

Technical Details

Classification Payload
Mass 575.00 kg
Dry Mass 530.00 kg
Total Mass 575.00 kg
Length 0.30 m
Diameter 4.10 m
Span 29.00 m
Shape Box + pan
Manufacturer SPXS
Bus Type Starlink V2MO
Phase Status In Orbit
Owner/State SPXS/US

Large Constellations

Loading constellations...